This demonstration page uses our WeatherBlox Daily Observations layout. Learn more.

Left ArrowRight Arrow

38.83388, -104.82136

Hourly Observations for November 19, 2019

Temp ( °F °C ) Dew Point ( °F °C ) Humidity (%) Winds ( mph kmh ) Pressure ( in mb ) Visibility ( mi km ) Precip ( " mm )
12:58 am 00:58 Mostly Cloudy 44 6.8 26 -3.2 49 49 NW 5 7 29.53 1000 10 16 0.00 0.00
1:58 am 01:58 Partly Cloudy 42 5.6 26 -3.2 54 54 Calm 29.50 999 10 16 0.00 0.00
2:58 am 02:58 Clear 42 5.3 26 -3.1 55 55 WNW 5 7 29.50 999 10 16 0.00 0.00
3:58 am 03:58 Clear 41 4.9 25 -3.8 54 54 Calm 29.49 999 10 16 0.00 0.00
4:58 am 04:58 Clear 41 4.8 26 -3.4 56 56 Calm 29.49 999 10 16 0.00 0.00
5:58 am 05:58 Clear 42 5.6 21 -6.3 42 42 Calm 29.48 998 10 16 0.00 0.00
6:58 am 06:58 Sunny 45 7.1 11 -11.4 26 26 WNW 3 6 29.46 998 10 16 0.00 0.00
7:58 am 07:58 Sunny 52 11.3 10 -12 18 18 Calm 29.46 998 10 16 0.00 0.00
8:58 am 08:58 Sunny 56 13.1 18 -7.8 23 23 ESE 5 7 29.46 998 10 16 0.00 0.00
9:58 am 09:58 Sunny 57 13.7 19 -7.4 23 23 ESE 7 11 29.47 998 10 16 0.00 0.00
10:58 am 10:58 Sunny 60 15.4 10 -12.2 14 14 SE 7 11 29.45 997 10 16 0.00 0.00
11:58 am 11:58 Sunny 61 16.1 13 -10.6 15 15 ESE 7 11 29.41 996 10 16 0.00 0.00
12:58 pm 12:58 Sunny 59 15.1 12 -11.2 15 15 SSE 14 22 29.39 995 10 16 0.00 0.00
1:58 pm 13:58 Partly Cloudy 59 14.8 19 -7.4 21 21 SSE 10 17 29.38 995 10 16 0.00 0.00
2:58 pm 14:58 Mostly Cloudy 55 12.9 19 -7 25 25 SSE 10 17 29.41 996 10 16 0.00 0.00
3:58 pm 15:58 Mostly Cloudy 53 11.7 22 -5.6 30 30 Calm 29.42 996 10 16 0.00 0.00
4:58 pm 16:58 Mostly Cloudy 51 10.6 20 -6.7 29 29 S 7 11 29.42 996 10 16 0.00 0.00
5:58 pm 17:58 Cloudy 51 10.5 21 -6.3 30 30 S 9 15 29.42 996 10 16 0.00 0.00
6:58 pm 18:58 Clear 51 10.3 18 -7.7 28 28 S 8 13 29.40 996 10 16 0.00 0.00
7:58 pm 19:58 Clear 49 9.4 19 -7.5 30 30 Calm 29.38 995 10 16 0.00 0.00
8:58 pm 20:58 Clear 50 10.2 16 -9 25 25 S 12 19 29.33 993 10 16 0.00 0.00
9:58 pm 21:58 Mostly Cloudy 48 9.1 17 -8.6 28 28 Calm 29.32 993 10 16 0.00 0.00
10:58 pm 22:58 Mostly Cloudy 53 11.5 14 -9.8 22 22 SSW 13 20 29.27 991 10 16 0.00 0.00
11:58 pm 23:58 Mostly Cloudy 53 11.5 14 -9.9 21 21 SSW 8 13 29.25 990 10 16 0.00 0.00

Powered by AerisWeather